Location: Ferintosh
(52.7647°N, 112.9692°W)
Time: 18:05:50
(UTC+00:00)

Explorer 7 - Pass Details

Date: 29 May 2024
Orbit: 466 x 622 km, 50.3° (Epoch: 15 June)

Event Time Altitude Azimuth Distance (km) Brightness Sun altitude
Rises 08:48:07 0° 278° (W) 2,584 10.1 -13.6°
Reaches altitude 10° 08:50:27 10° 267° (W) 1,723 9.1 -13.5°
Maximum altitude 08:53:51 29° 207° (SSW) 982 7.5 -13.3°
Drops below altitude 10° 08:57:24 10° 146° (SSE) 1,800 9.1 -13.1°
Sets 08:59:53 0° 136° (SE) 2,723 10.1 -13.0°
